VLG8433 LYTV-LEBL

Flight info

Callsign VLG8433
Flight time 2h 2m
Altitude 20000
Route KOFER L611 AMUGO M169 ORAKA/N0437F360 DCT KATTI/N0438F370 DCT TINTO DCT OLBEK DCT EPIKU/N0442F380 DCT GINOX DCT KIFMI/N0395F280 DCT ELVOP DCT MUREN DCT CHELY DCT VERSO
Aircraft A320/M-SDE3FGHIRWY/LB1

Departure

Time 2026-05-06 11:07
Airport Tivat Airport (LYTV)

Arrival

Time 2026-05-06 13:09
Airport Josep Tarradellas Barcelona-El Prat Airport (LEBL)
Time Latitude Longitude Altitude Speed Heading
2026-05-06 10:44 42.41302 18.71602 15 ft 0 kts 173°
2026-05-06 11:02 42.41299 18.71603 16 ft 2 kts 175°
2026-05-06 11:02 42.41264 18.71605 21 ft 8 kts 176°
2026-05-06 11:02 42.41199 18.71650 20 ft 14 kts 139°
2026-05-06 11:02 42.41120 18.71741 19 ft 16 kts 138°
2026-05-06 11:03 42.41049 18.71828 19 ft 8 kts 137°
2026-05-06 11:03 42.41008 18.71857 20 ft 3 kts 178°
2026-05-06 11:03 42.41006 18.71857 20 ft 0 kts 181°
2026-05-06 11:03 42.40992 18.71841 20 ft 8 kts 223°
2026-05-06 11:04 42.40917 18.71801 21 ft 17 kts 153°
2026-05-06 11:04 42.40802 18.71932 18 ft 26 kts 139°
2026-05-06 11:04 42.40650 18.72113 17 ft 32 kts 138°
2026-05-06 11:04 42.40472 18.72324 18 ft 36 kts 139°
2026-05-06 11:05 42.40274 18.72558 20 ft 39 kts 140°
2026-05-06 11:05 42.40066 18.72806 19 ft 41 kts 139°
2026-05-06 11:05 42.39853 18.73057 17 ft 39 kts 139°
2026-05-06 11:05 42.39685 18.73242 19 ft 20 kts 157°
2026-05-06 11:06 42.39618 18.73297 19 ft 9 kts 71°
2026-05-06 11:06 42.39662 18.73282 19 ft 7 kts 320°
2026-05-06 11:06 42.39711 18.73224 19 ft 21 kts 318°
2026-05-06 11:06 42.40031 18.72846 18 ft 98 kts 319°
2026-05-06 11:07 42.40695 18.72059 19 ft 153 kts 319°
2026-05-06 11:07 42.41559 18.71037 421 ft 167 kts 320°
2026-05-06 11:07 42.42301 18.69859 1105 ft 170 kts 291°
2026-05-06 11:07 42.42358 18.68276 1627 ft 176 kts 244°
2026-05-06 11:08 42.41518 18.67089 2068 ft 184 kts 208°
2026-05-06 11:08 42.40376 18.66095 2430 ft 205 kts 209°
2026-05-06 11:08 42.39133 18.64930 2768 ft 232 kts 211°
2026-05-06 11:08 42.37822 18.63625 3702 ft 229 kts 212°
2026-05-06 11:09 42.36584 18.62336 4839 ft 222 kts 214°
2026-05-06 11:09 42.35374 18.61042 5699 ft 223 kts 214°
2026-05-06 11:09 42.34223 18.59641 6517 ft 228 kts 229°
2026-05-06 11:09 42.33490 18.57712 7313 ft 236 kts 253°
2026-05-06 11:10 42.33385 18.55392 7736 ft 265 kts 276°
2026-05-06 11:10 42.33917 18.52906 8326 ft 280 kts 283°
2026-05-06 11:10 42.34502 18.50361 9145 ft 285 kts 284°
2026-05-06 11:10 42.35083 18.47793 10023 ft 287 kts 284°
2026-05-06 11:11 42.35672 18.45140 10461 ft 305 kts 284°
2026-05-06 11:11 42.36300 18.42284 10697 ft 329 kts 284°
2026-05-06 11:11 42.36971 18.39213 10877 ft 352 kts 282°
2026-05-06 11:11 42.37678 18.35956 11187 ft 367 kts 284°
2026-05-06 11:12 42.38403 18.32660 11813 ft 372 kts 283°
2026-05-06 11:12 42.39149 18.29289 12579 ft 373 kts 283°
2026-05-06 11:12 42.39894 18.25915 13300 ft 376 kts 284°
2026-05-06 11:12 42.40391 18.23656 13707 ft 380 kts 284°
2026-05-06 11:13 42.41143 18.20214 14325 ft 382 kts 284°
2026-05-06 11:13 42.41895 18.16754 14912 ft 385 kts 284°
2026-05-06 11:13 42.42653 18.13259 15473 ft 388 kts 284°
2026-05-06 11:13 42.43418 18.09738 16081 ft 390 kts 284°
2026-05-06 11:14 42.44182 18.06219 16716 ft 391 kts 284°
2026-05-06 11:14 42.44950 18.02675 17269 ft 393 kts 284°
2026-05-06 11:14 42.45722 17.99100 17818 ft 396 kts 284°
2026-05-06 11:14 42.46498 17.95518 18387 ft 398 kts 285°
2026-05-06 11:15 42.47277 17.91905 18826 ft 401 kts 284°
2026-05-06 11:15 42.48058 17.88272 19280 ft 403 kts 284°
2026-05-06 11:15 42.48833 17.84660 19722 ft 406 kts 284°
2026-05-06 11:15 42.49619 17.80979 20186 ft 408 kts 284°
2026-05-06 11:16 42.50407 17.77280 20659 ft 409 kts 284°
2026-05-06 11:16 42.51198 17.73561 21115 ft 411 kts 284°
2026-05-06 11:16 42.51992 17.69826 21551 ft 414 kts 284°
2026-05-06 11:16 42.52791 17.66072 21967 ft 416 kts 284°
2026-05-06 11:17 42.53595 17.62295 22384 ft 418 kts 284°
2026-05-06 11:17 42.54219 17.58455 22780 ft 418 kts 276°
2026-05-06 11:17 42.54371 17.54527 23182 ft 418 kts 268°
2026-05-06 11:17 42.54293 17.50577 23586 ft 420 kts 267°
2026-05-06 11:18 42.54213 17.46604 23926 ft 422 kts 267°
2026-05-06 11:18 42.54134 17.42612 24265 ft 423 kts 267°
2026-05-06 11:18 42.54058 17.38611 24598 ft 425 kts 268°
2026-05-06 11:18 42.53983 17.34593 24885 ft 428 kts 267°
2026-05-06 11:19 42.53904 17.30551 25179 ft 429 kts 267°
2026-05-06 11:19 42.53823 17.26503 25481 ft 431 kts 267°
2026-05-06 11:19 42.53740 17.22474 25778 ft 432 kts 267°
2026-05-06 11:19 42.53655 17.18390 26066 ft 434 kts 267°
2026-05-06 11:20 42.53568 17.14292 26358 ft 436 kts 267°
2026-05-06 11:20 42.53482 17.10180 26633 ft 437 kts 267°
2026-05-06 11:20 42.53399 17.06069 27050 ft 435 kts 267°
2026-05-06 11:20 42.53312 17.01977 27476 ft 433 kts 267°
2026-05-06 11:21 42.53224 16.97901 27891 ft 432 kts 266°
2026-05-06 11:21 42.53135 16.93837 28309 ft 431 kts 266°
2026-05-06 11:21 42.53046 16.89781 28733 ft 429 kts 266°
2026-05-06 11:21 42.52955 16.85742 29157 ft 428 kts 266°
2026-05-06 11:22 42.52863 16.81719 29593 ft 426 kts 266°
2026-05-06 11:22 42.52770 16.77715 30021 ft 425 kts 266°
2026-05-06 11:22 42.52672 16.73715 30384 ft 424 kts 266°
2026-05-06 11:22 42.52574 16.69770 30728 ft 423 kts 266°
2026-05-06 11:23 42.52471 16.65786 31053 ft 422 kts 266°
2026-05-06 11:23 42.52367 16.61815 31378 ft 422 kts 266°
2026-05-06 11:23 42.52263 16.57842 31713 ft 421 kts 266°
2026-05-06 11:23 42.52160 16.53877 32046 ft 421 kts 266°
2026-05-06 11:24 42.52056 16.49907 32374 ft 420 kts 266°
2026-05-06 11:24 42.51954 16.45948 32707 ft 420 kts 266°
2026-05-06 11:24 42.51850 16.42000 33042 ft 419 kts 266°
2026-05-06 11:24 42.51743 16.38055 33372 ft 418 kts 266°
2026-05-06 11:25 42.51636 16.34115 33710 ft 418 kts 266°
2026-05-06 11:25 42.51527 16.30183 34038 ft 417 kts 266°
2026-05-06 11:25 42.51416 16.26250 34321 ft 417 kts 266°
2026-05-06 11:25 42.51304 16.22327 34610 ft 416 kts 266°
2026-05-06 11:26 42.51192 16.18410 34881 ft 416 kts 266°
2026-05-06 11:26 42.51077 16.14505 35158 ft 415 kts 265°
2026-05-06 11:26 42.50958 16.10599 35422 ft 414 kts 265°
2026-05-06 11:26 42.50831 16.06701 35676 ft 414 kts 263°
2026-05-06 11:27 42.50425 16.02908 35901 ft 412 kts 255°
2026-05-06 11:27 42.49046 15.95346 35994 ft 415 kts 255°
2026-05-06 11:28 42.47650 15.87747 35984 ft 416 kts 255°
2026-05-06 11:28 42.46249 15.80141 35986 ft 416 kts 255°
2026-05-06 11:29 42.44845 15.72536 35980 ft 416 kts 255°
2026-05-06 11:29 42.43433 15.64931 35979 ft 416 kts 255°
2026-05-06 11:30 42.42011 15.57333 35984 ft 416 kts 254°
2026-05-06 11:30 42.40599 15.49789 35982 ft 416 kts 254°
2026-05-06 11:31 42.39182 15.42209 35980 ft 416 kts 254°
2026-05-06 11:31 42.37758 15.34639 35970 ft 416 kts 254°
2026-05-06 11:32 42.36325 15.27054 35980 ft 416 kts 254°
2026-05-06 11:32 42.34885 15.19485 35979 ft 416 kts 254°
2026-05-06 11:33 42.33449 15.11969 35975 ft 416 kts 254°
2026-05-06 11:33 42.32001 15.04404 35968 ft 416 kts 254°
2026-05-06 11:34 42.30545 14.96829 35974 ft 416 kts 253°
2026-05-06 11:34 42.29080 14.89277 35978 ft 416 kts 253°
2026-05-06 11:35 42.27618 14.81725 35974 ft 415 kts 253°
2026-05-06 11:35 42.26162 14.74234 35959 ft 414 kts 253°
2026-05-06 11:36 42.24700 14.66735 35962 ft 414 kts 253°
2026-05-06 11:36 42.23226 14.59219 35962 ft 413 kts 253°
2026-05-06 11:37 42.21750 14.51729 35961 ft 413 kts 253°
2026-05-06 11:37 42.20277 14.44238 35963 ft 412 kts 253°
2026-05-06 11:38 42.18801 14.36767 35963 ft 412 kts 253°
2026-05-06 11:38 42.17319 14.29302 35956 ft 412 kts 253°
2026-05-06 11:39 42.15840 14.21890 35957 ft 412 kts 253°
2026-05-06 11:39 42.14340 14.14441 35993 ft 411 kts 253°
2026-05-06 11:40 42.12846 14.07019 35987 ft 409 kts 253°
2026-05-06 11:40 42.11362 13.99619 35979 ft 409 kts 253°
2026-05-06 11:41 42.09865 13.92225 35999 ft 409 kts 252°
2026-05-06 11:41 42.08362 13.84847 35996 ft 408 kts 252°
2026-05-06 11:42 42.06857 13.77482 36015 ft 408 kts 252°
2026-05-06 11:42 42.05345 13.70140 36007 ft 407 kts 252°
2026-05-06 11:43 42.03840 13.62852 36013 ft 406 kts 252°
2026-05-06 11:43 42.02338 13.55528 36014 ft 406 kts 252°
2026-05-06 11:44 42.00068 13.44552 36023 ft 406 kts 252°
2026-05-06 11:44 41.98547 13.37253 36033 ft 405 kts 252°
2026-05-06 11:45 41.97019 13.29955 36032 ft 406 kts 252°
2026-05-06 11:45 41.95499 13.22701 36034 ft 406 kts 252°
2026-05-06 11:46 41.93968 13.15405 36029 ft 406 kts 252°
2026-05-06 11:46 41.92430 13.08100 36044 ft 405 kts 252°
2026-05-06 11:47 41.90885 13.00816 36040 ft 405 kts 252°
2026-05-06 11:47 41.89341 12.93564 36039 ft 404 kts 252°
2026-05-06 11:48 41.87810 12.86352 36026 ft 404 kts 252°
2026-05-06 11:48 41.86264 12.79101 36028 ft 404 kts 251°
2026-05-06 11:49 41.84704 12.71853 36046 ft 404 kts 251°
2026-05-06 11:49 41.83138 12.64611 36044 ft 404 kts 251°
2026-05-06 11:50 41.81571 12.57389 36041 ft 403 kts 251°
2026-05-06 11:50 41.80002 12.50172 36037 ft 403 kts 251°
2026-05-06 11:51 41.78448 12.42995 36032 ft 404 kts 251°
2026-05-06 11:51 41.76873 12.35773 36051 ft 404 kts 251°
2026-05-06 11:52 41.75292 12.28561 36048 ft 403 kts 251°
2026-05-06 11:52 41.73711 12.21351 36028 ft 403 kts 251°
2026-05-06 11:53 41.72121 12.14147 35984 ft 404 kts 251°
2026-05-06 11:53 41.70527 12.06933 35988 ft 404 kts 251°
2026-05-06 11:54 41.68926 11.99729 36010 ft 403 kts 251°
2026-05-06 11:54 41.67320 11.92550 36012 ft 403 kts 251°
2026-05-06 11:55 41.65728 11.85422 36008 ft 402 kts 251°
2026-05-06 11:55 41.64125 11.78259 36003 ft 402 kts 251°
2026-05-06 11:56 41.62516 11.71098 35999 ft 402 kts 251°
2026-05-06 11:56 41.60899 11.63937 36017 ft 402 kts 250°
2026-05-06 11:57 41.59274 11.56793 35996 ft 402 kts 251°
2026-05-06 11:57 41.57659 11.49695 35994 ft 402 kts 251°
2026-05-06 11:58 41.56040 11.42548 35996 ft 402 kts 251°
2026-05-06 11:58 41.54413 11.35410 35993 ft 402 kts 250°
2026-05-06 11:59 41.52772 11.28279 36015 ft 402 kts 250°
2026-05-06 11:59 41.51146 11.21207 36007 ft 400 kts 250°
2026-05-06 12:00 41.49512 11.14113 35997 ft 400 kts 250°
2026-05-06 12:00 41.47869 11.07029 36001 ft 399 kts 251°
2026-05-06 12:01 41.46453 10.99839 35993 ft 401 kts 254°
2026-05-06 12:01 41.45260 10.92611 35982 ft 401 kts 255°
2026-05-06 12:02 41.44053 10.85338 35976 ft 401 kts 254°
2026-05-06 12:02 41.42780 10.78102 35974 ft 401 kts 254°
2026-05-06 12:03 41.41474 10.70872 36187 ft 402 kts 254°
2026-05-06 12:03 41.40829 10.67286 36425 ft 401 kts 254°
2026-05-06 12:03 41.40181 10.63667 36634 ft 402 kts 254°
2026-05-06 12:04 41.39530 10.60043 36833 ft 402 kts 254°
2026-05-06 12:04 41.38879 10.56415 36979 ft 403 kts 254°
2026-05-06 12:04 41.37580 10.49178 36975 ft 401 kts 254°
2026-05-06 12:05 41.36281 10.41959 36972 ft 401 kts 254°
2026-05-06 12:05 41.34973 10.34750 36973 ft 401 kts 254°
2026-05-06 12:06 41.33885 10.28749 36972 ft 401 kts 254°
2026-05-06 12:06 41.32570 10.21538 36974 ft 401 kts 254°
2026-05-06 12:07 41.31254 10.14345 36983 ft 400 kts 254°
2026-05-06 12:07 41.29932 10.07150 36989 ft 399 kts 254°
2026-05-06 12:08 41.28612 10.00021 36987 ft 399 kts 254°
2026-05-06 12:08 41.27274 9.92836 36984 ft 398 kts 254°
2026-05-06 12:09 41.25946 9.85689 36987 ft 398 kts 253°
2026-05-06 12:09 41.24487 9.78650 36991 ft 397 kts 251°
2026-05-06 12:10 41.22878 9.71631 36986 ft 397 kts 251°
2026-05-06 12:10 41.21267 9.64601 36979 ft 397 kts 251°
2026-05-06 12:11 41.19685 9.57570 36975 ft 398 kts 251°
2026-05-06 12:11 41.18107 9.50527 36969 ft 398 kts 251°
2026-05-06 12:12 41.16533 9.43489 36978 ft 397 kts 251°
2026-05-06 12:12 41.14955 9.36504 36978 ft 397 kts 251°
2026-05-06 12:13 41.13359 9.29483 36977 ft 397 kts 251°
2026-05-06 12:13 41.11755 9.22462 36979 ft 397 kts 251°
2026-05-06 12:14 41.10154 9.15450 36979 ft 397 kts 251°
2026-05-06 12:14 41.08550 9.08437 36993 ft 397 kts 251°
2026-05-06 12:15 41.06950 9.01457 36987 ft 397 kts 250°
2026-05-06 12:15 41.05336 8.94444 36982 ft 398 kts 250°
2026-05-06 12:16 41.03712 8.87439 36984 ft 398 kts 250°
2026-05-06 12:16 41.02088 8.80435 36985 ft 398 kts 250°
2026-05-06 12:17 41.00474 8.73479 36969 ft 397 kts 250°
2026-05-06 12:17 40.98850 8.66476 36987 ft 398 kts 250°
2026-05-06 12:18 40.97216 8.59480 36979 ft 398 kts 250°
2026-05-06 12:18 40.95567 8.52466 36984 ft 399 kts 250°
2026-05-06 12:19 40.93923 8.45477 36977 ft 399 kts 250°
2026-05-06 12:19 40.92265 8.38461 36976 ft 400 kts 250°
2026-05-06 12:20 40.90604 8.31449 37004 ft 400 kts 250°
2026-05-06 12:20 40.88935 8.24414 36975 ft 401 kts 250°
2026-05-06 12:21 40.87258 8.17381 36973 ft 402 kts 250°
2026-05-06 12:21 40.85937 8.10249 36975 ft 406 kts 262°
2026-05-06 12:22 40.86106 8.02741 36981 ft 410 kts 269°
2026-05-06 12:22 40.86508 7.95214 36997 ft 411 kts 270°
2026-05-06 12:23 40.87049 7.87688 36991 ft 412 kts 271°
2026-05-06 12:23 40.87612 7.80143 36988 ft 412 kts 271°
2026-05-06 12:24 40.88135 7.72646 36987 ft 412 kts 270°
2026-05-06 12:24 40.88637 7.65107 36985 ft 412 kts 270°
2026-05-06 12:25 40.89132 7.57567 37016 ft 411 kts 270°
2026-05-06 12:25 40.89629 7.50033 37004 ft 411 kts 270°
2026-05-06 12:26 40.90119 7.42517 36996 ft 411 kts 270°
2026-05-06 12:26 40.90600 7.35042 36992 ft 410 kts 270°
2026-05-06 12:27 40.91081 7.27516 36988 ft 410 kts 270°
2026-05-06 12:27 40.91560 7.19989 36986 ft 410 kts 270°
2026-05-06 12:28 40.92030 7.12474 36985 ft 410 kts 270°
2026-05-06 12:28 40.92492 7.05001 36983 ft 410 kts 270°
2026-05-06 12:29 40.92960 6.97484 36984 ft 410 kts 270°
2026-05-06 12:29 40.93416 6.89966 36984 ft 410 kts 270°
2026-05-06 12:30 40.93865 6.82460 37008 ft 410 kts 269°
2026-05-06 12:30 40.94306 6.74933 36999 ft 410 kts 269°
2026-05-06 12:31 40.94747 6.67445 36991 ft 410 kts 270°
2026-05-06 12:31 40.95189 6.59881 36988 ft 410 kts 269°
2026-05-06 12:32 40.95615 6.52406 36989 ft 410 kts 269°
2026-05-06 12:32 40.96039 6.44878 37007 ft 410 kts 269°
2026-05-06 12:33 40.96457 6.37358 37000 ft 409 kts 269°
2026-05-06 12:33 40.96876 6.29847 36996 ft 409 kts 269°
2026-05-06 12:34 40.97291 6.22342 36989 ft 409 kts 269°
2026-05-06 12:34 40.97693 6.14885 36987 ft 408 kts 269°
2026-05-06 12:35 40.98087 6.07387 37015 ft 408 kts 269°
2026-05-06 12:35 40.98484 5.99893 37004 ft 407 kts 269°
2026-05-06 12:36 40.98874 5.92410 37000 ft 407 kts 269°
2026-05-06 12:36 40.99261 5.84940 36995 ft 407 kts 269°
2026-05-06 12:37 40.99641 5.77528 36990 ft 406 kts 269°
2026-05-06 12:37 41.00013 5.70058 37010 ft 406 kts 269°
2026-05-06 12:38 41.00382 5.62608 36997 ft 406 kts 269°
2026-05-06 12:38 41.00746 5.55150 36992 ft 405 kts 269°
2026-05-06 12:39 41.01105 5.47715 36993 ft 405 kts 269°
2026-05-06 12:39 41.01461 5.40313 36984 ft 405 kts 269°
2026-05-06 12:40 41.01827 5.32885 37015 ft 405 kts 269°
2026-05-06 12:40 41.02224 5.25443 37000 ft 404 kts 269°
2026-05-06 12:41 41.02621 5.18018 36997 ft 404 kts 269°
2026-05-06 12:41 41.02996 5.10608 36991 ft 404 kts 269°
2026-05-06 12:42 41.03366 5.03173 36986 ft 404 kts 269°
2026-05-06 12:42 41.03728 4.95798 36983 ft 404 kts 269°
2026-05-06 12:43 41.04101 4.88380 36999 ft 404 kts 269°
2026-05-06 12:43 41.04463 4.80947 36992 ft 404 kts 269°
2026-05-06 12:44 41.04924 4.73501 36990 ft 406 kts 272°
2026-05-06 12:44 41.05706 4.66085 36986 ft 407 kts 274°
2026-05-06 12:45 41.06145 4.62387 36747 ft 407 kts 274°
2026-05-06 12:45 41.06590 4.58673 36485 ft 407 kts 274°
2026-05-06 12:45 41.07437 4.51265 35641 ft 407 kts 273°
2026-05-06 12:46 41.07838 4.47565 34785 ft 410 kts 273°
2026-05-06 12:46 41.08235 4.43825 33964 ft 412 kts 272°
2026-05-06 12:46 41.08634 4.40043 32910 ft 416 kts 272°
2026-05-06 12:46 41.09037 4.36233 31936 ft 418 kts 272°
2026-05-06 12:47 41.09440 4.32400 30939 ft 421 kts 272°
2026-05-06 12:47 41.09847 4.28528 29821 ft 426 kts 272°
2026-05-06 12:47 41.10257 4.24615 28595 ft 429 kts 273°
2026-05-06 12:47 41.10665 4.20733 27441 ft 431 kts 273°
2026-05-06 12:48 41.11081 4.16786 26291 ft 433 kts 274°
2026-05-06 12:48 41.11500 4.12823 25153 ft 435 kts 274°
2026-05-06 12:48 41.11917 4.08862 24048 ft 433 kts 274°
2026-05-06 12:48 41.12326 4.04973 22887 ft 416 kts 274°
2026-05-06 12:49 41.12719 4.01242 21790 ft 401 kts 274°
2026-05-06 12:49 41.13092 3.97636 21018 ft 393 kts 274°
2026-05-06 12:49 41.13454 3.94087 20365 ft 377 kts 274°
2026-05-06 12:49 41.13799 3.90757 20029 ft 351 kts 273°
2026-05-06 12:50 41.14124 3.87620 19656 ft 339 kts 273°
2026-05-06 12:50 41.14434 3.84542 19426 ft 338 kts 273°
2026-05-06 12:50 41.14738 3.81455 19180 ft 335 kts 273°
2026-05-06 12:50 41.15034 3.78434 18956 ft 333 kts 273°
2026-05-06 12:51 41.15336 3.75392 18721 ft 332 kts 273°
2026-05-06 12:51 41.15640 3.72361 18486 ft 331 kts 273°
2026-05-06 12:51 41.15942 3.69342 18244 ft 330 kts 273°
2026-05-06 12:51 41.16244 3.66326 17981 ft 329 kts 273°
2026-05-06 12:52 41.16545 3.63324 17708 ft 328 kts 274°
2026-05-06 12:52 41.16845 3.60328 17444 ft 328 kts 274°
2026-05-06 12:52 41.17141 3.57331 17178 ft 327 kts 274°
2026-05-06 12:52 41.17435 3.54334 16916 ft 327 kts 274°
2026-05-06 12:53 41.17731 3.51350 16642 ft 327 kts 274°
2026-05-06 12:53 41.18028 3.48361 16248 ft 325 kts 275°
2026-05-06 12:53 41.18327 3.45382 15847 ft 325 kts 275°
2026-05-06 12:53 41.18620 3.42418 15449 ft 324 kts 275°
2026-05-06 12:54 41.18908 3.39456 15054 ft 323 kts 275°
2026-05-06 12:54 41.19190 3.36533 14662 ft 323 kts 276°
2026-05-06 12:54 41.19475 3.33578 14258 ft 322 kts 276°
2026-05-06 12:54 41.19761 3.30627 13871 ft 322 kts 276°
2026-05-06 12:55 41.20048 3.27677 13438 ft 321 kts 276°
2026-05-06 12:55 41.20330 3.24747 13039 ft 320 kts 276°
2026-05-06 12:55 41.20609 3.21816 12643 ft 319 kts 276°
2026-05-06 12:55 41.20886 3.18906 12252 ft 317 kts 276°
2026-05-06 12:56 41.21160 3.16009 11861 ft 316 kts 276°
2026-05-06 12:56 41.21425 3.13114 11474 ft 314 kts 276°
2026-05-06 12:56 41.21683 3.10237 11087 ft 313 kts 276°
2026-05-06 12:56 41.21932 3.07406 10708 ft 312 kts 276°
2026-05-06 12:57 41.22184 3.04513 10346 ft 309 kts 276°
2026-05-06 12:57 41.22424 3.01770 10217 ft 297 kts 276°
2026-05-06 12:57 41.22660 2.99095 10093 ft 285 kts 276°
2026-05-06 12:57 41.22889 2.96503 9872 ft 278 kts 276°
2026-05-06 12:58 41.23112 2.93973 9739 ft 276 kts 276°
2026-05-06 12:58 41.23333 2.91440 9628 ft 275 kts 276°
2026-05-06 12:58 41.23553 2.88900 9474 ft 275 kts 275°
2026-05-06 12:58 41.23770 2.86387 9271 ft 274 kts 275°
2026-05-06 12:59 41.23987 2.83878 9063 ft 273 kts 275°
2026-05-06 12:59 41.24203 2.81380 8855 ft 271 kts 275°
2026-05-06 12:59 41.24418 2.78893 8638 ft 270 kts 275°
2026-05-06 12:59 41.24627 2.76447 8437 ft 269 kts 275°
2026-05-06 13:00 41.24838 2.73974 8224 ft 268 kts 275°
2026-05-06 13:00 41.25048 2.71525 8025 ft 267 kts 275°
2026-05-06 13:00 41.25257 2.69078 7814 ft 266 kts 275°
2026-05-06 13:00 41.25462 2.66642 7615 ft 265 kts 273°
2026-05-06 13:01 41.25446 2.64202 7407 ft 263 kts 267°
2026-05-06 13:01 41.25371 2.61801 7203 ft 262 kts 267°
2026-05-06 13:01 41.25293 2.59382 7005 ft 261 kts 267°
2026-05-06 13:01 41.25216 2.56976 6787 ft 260 kts 267°
2026-05-06 13:02 41.25166 2.55388 6667 ft 259 kts 267°
2026-05-06 13:02 41.25091 2.52995 6466 ft 258 kts 267°
2026-05-06 13:02 41.25189 2.50630 6313 ft 258 kts 282°
2026-05-06 13:02 41.25968 2.48473 5749 ft 265 kts 307°
2026-05-06 13:03 41.27269 2.46706 5307 ft 266 kts 313°
2026-05-06 13:03 41.28596 2.44981 4817 ft 267 kts 313°
2026-05-06 13:03 41.29921 2.43266 4451 ft 263 kts 313°
2026-05-06 13:03 41.31200 2.41605 4277 ft 251 kts 313°
2026-05-06 13:04 41.32416 2.40019 4160 ft 239 kts 313°
2026-05-06 13:04 41.33573 2.38501 4048 ft 228 kts 313°
2026-05-06 13:04 41.34676 2.37051 3954 ft 218 kts 313°
2026-05-06 13:04 41.35742 2.35647 3863 ft 214 kts 313°
2026-05-06 13:05 41.36791 2.34254 3775 ft 213 kts 310°
2026-05-06 13:05 41.37497 2.32582 3522 ft 212 kts 282°
2026-05-06 13:05 41.37458 2.30652 3292 ft 210 kts 252°
2026-05-06 13:05 41.36875 2.28840 3024 ft 211 kts 245°
2026-05-06 13:06 41.36272 2.27091 2762 ft 211 kts 244°
2026-05-06 13:06 41.35663 2.25308 2471 ft 212 kts 244°
2026-05-06 13:06 41.35053 2.23519 2186 ft 213 kts 243°
2026-05-06 13:06 41.34444 2.21729 1903 ft 211 kts 243°
2026-05-06 13:07 41.33845 2.19968 1621 ft 204 kts 243°
2026-05-06 13:07 41.33271 2.18281 1349 ft 195 kts 244°
2026-05-06 13:07 41.32736 2.16709 1106 ft 178 kts 241°
2026-05-06 13:07 41.32255 2.15299 869 ft 155 kts 243°
2026-05-06 13:08 41.31833 2.14064 661 ft 141 kts 243°
2026-05-06 13:08 41.31440 2.12913 473 ft 134 kts 243°
2026-05-06 13:08 41.31050 2.11773 296 ft 134 kts 241°
2026-05-06 13:08 41.30663 2.10653 118 ft 133 kts 242°
2026-05-06 13:09 41.30299 2.09560 21 ft 120 kts 240°
2026-05-06 13:09 41.30010 2.08739 22 ft 76 kts 245°
2026-05-06 13:09 41.29839 2.08321 23 ft 31 kts 219°
2026-05-06 13:09 41.29724 2.08209 17 ft 12 kts 214°
2026-05-06 13:10 41.29636 2.08218 18 ft 14 kts 158°
2026-05-06 13:10 41.29534 2.08276 16 ft 17 kts 155°
2026-05-06 13:10 41.29425 2.08342 19 ft 18 kts 156°
2026-05-06 13:10 41.29315 2.08408 20 ft 12 kts 155°
2026-05-06 13:11 41.29251 2.08447 21 ft 10 kts 155°
2026-05-06 13:11 41.29176 2.08442 21 ft 13 kts 204°
2026-05-06 13:11 41.29092 2.08397 19 ft 12 kts 202°
2026-05-06 13:11 41.29033 2.08322 19 ft 13 kts 246°
2026-05-06 13:12 41.28996 2.08200 20 ft 15 kts 244°
2026-05-06 13:12 41.28947 2.08063 19 ft 18 kts 245°
2026-05-06 13:12 41.28936 2.07992 19 ft 5 kts 308°
2026-05-06 13:12 41.28962 2.07972 19 ft 4 kts 337°
2026-05-06 13:13 41.28985 2.07958 19 ft 3 kts 336°
2026-05-06 13:13 41.28994 2.07953 21 ft 1 kts 336°
2026-05-06 13:13 41.28995 2.07952 20 ft 0 kts 336°